Lapse_Rate
5.1 6.5 6.5 6.5 6.5 6.5 6.5 6.5 6.5 6.5 6.5 6.5 6.5 6.5 6.5 6.5 5.6 6.4 5.2 4.1 3.0 1.9 2.1 1.6 0.9 0.4 0.3 0.4 0.6 1.0 1.1 1.7 1.3 0.9 1.2 1.4 0.9 0.8 0.1 -0.7 -0.1 -0.1 -0.0 -0.2
6.5 6.5 6.5 6.5 6.5 6.5 6.5 6.5 6.5 6.5 6.5 6.5 6.5 6.5 6.5 6.5 6.3 6.4 6.2 4.7 2.6 2.1 0.8 0.9 0.6 0.5 0.2 0.7 0.3 0.6 1.0 1.1 0.9 1.7 1.0 1.5 0.9 0.8 1.1 0.5 -0.0 -0.5 -0.6 -0.6
6.5 6.5 6.4 6.5 6.5 6.5 6.5 6.5 6.5 6.5 6.5 6.5 6.5 6.5 6.5 6.5 6.2 5.0 4.8 4.4 3.5 2.1 1.7 0.8 0.1 -0.1 0.0 0.7 0.2 0.4 0.5 0.6 0.8 0.9 -0.2 -0.2 0.0 -0.8 -0.7 -0.8 -0.7 -1.4 -1.0 -0.8
6.5 6.3 6.5 6.5 6.5 6.5 6.5 6.5 6.5 6.5 6.5 6.5 6.5 6.5 6.5 6.5 6.5 6.5 5.3 3.0 2.8 1.5 0.7 1.3 -0.2 -0.8 -0.7 -0.2 -0.1 0.5 0.4 0.5 0.6 0.1 0.8 1.4 1.5 1.3 0.4 0.8 0.2 0.0 -1.0 -1.1
6.5 6.5 6.5 6.5 6.5 6.5 6.5 6.5 6.5 6.5 6.5 6.5 6.5 6.5 6.5 6.5 6.5 6.5 6.5 3.9 1.6 0.4 0.7 0.9 -0.0 -0.0 -0.8 -0.7 -1.0 -0.3 -0.3 -0.0 0.2 -0.5 0.5 0.9 1.6 1.5 0.8 0.3 0.3 -0.2 -1.2 -1.6
6.5 5.7 6.4 6.5 6.5 6.5 6.5 6.5 6.5 6.5 6.5 6.5 6.5 6.5 6.5 6.5 6.5 6.5 6.5 6.4 4.3 3.1 0.3 -0.2 -0.3 -0.3 -0.5 -1.5 -1.7 -1.5 -0.9 -0.7 -0.5 -0.6 -0.3 -0.1 0.4 0.1 -0.1 -0.1 -0.2 -0.5 -0.8 -1.0
6.5 6.5 6.4 6.3 6.5 6.5 6.5 6.5 6.5 6.5 6.5 6.5 6.5 6.5 6.5 6.5 6.5 6.5 6.5 6.4 3.7 2.0 1.3 -0.3 -0.2 -1.5 -1.1 -2.5 -2.7 -2.3 -1.5 -0.9 -1.2 -1.1 -0.8 -0.8 -0.5 -0.3 -0.2 0.2 0.0 -0.2 -0.6 -1.4
6.5 6.5 6.5 6.5 6.5 6.5 6.5 6.5 6.5 6.5 6.5 6.5 6.5 6.5 6.5 6.5 5.3 5.4 5.0 4.1 2.0 1.4 0.7 -0.5 -0.9 -1.0 -1.6 -2.1 -2.5 -2.2 -2.2 -1.0 -1.8 -1.4 -1.3 -1.2 -1.0 -0.8 -0.5 -0.4 -0.4 -0.1 -0.3 -0.0
6.5 6.5 6.5 6.5 6.5 6.5 6.5 6.5 6.5 6.5 6.5 6.5 6.5 6.5 6.5 6.5 6.5 6.3 6.2 5.5 3.1 2.8 1.3 -0.2 -0.7 -1.1 -1.2 -1.6 -2.5 -2.6 -2.4 -1.5 -2.0 -1.8 -1.5 -1.7 -1.5 -1.3 -1.5 -1.7 -1.4 -0.8 -0.9 -0.8
6.5 6.5 6.5 6.5 6.2 6.3 6.5 6.5 6.5 6.5 6.5 6.5 6.5 6.5 6.5 6.5 6.5 6.5 6.5 6.1 4.3 2.7 3.4 1.5 0.1 -0.7 -0.9 -1.6 -1.9 -2.6 -2.2 -1.8 -2.1 -2.1 -1.9 -1.6 -1.8 -1.5 -1.3 -1.7 -1.9 -1.8 -1.2 -1.4
6.5 6.5 6.5 6.5 6.5 6.5 6.5 6.5 6.5 6.5 6.5 6.5 6.5 6.5 6.5 6.5 6.5 6.5 6.5 4.1 2.8 2.7 2.8 2.8 1.2 -0.5 -1.3 -1.9 -2.2 -2.3 -2.4 -2.0 -1.9 -2.3 -2.0 -1.4 -1.9 -1.9 -1.4 -1.8 -1.5 -1.4 -1.3 -1.4
6.5 6.5 6.5 6.5 6.5 6.5 6.5 6.5 6.5 6.5 6.5 6.5 6.5 6.5 6.5 6.5 6.4 5.4 6.0 4.0 3.3 2.1 1.4 2.2 1.9 0.8 -0.4 -1.1 -2.0 -2.5 -2.2 -2.1 -1.9 -2.1 -1.9 -2.0 -1.6 -1.9 -1.9 -1.8 -1.6 -1.5 -1.5 -1.4
6.5 6.5 6.5 6.5 6.5 6.5 6.5 6.5 6.5 6.5 6.5 6.5 6.5 6.5 6.5 6.4 6.3 6.0 5.6 6.0 5.0 5.9 4.0 4.0 2.3 2.2 1.4 -0.0 -1.0 -1.6 -2.0 -2.5 -1.9 -2.1 -2.1 -2.1 -1.9 -2.1 -1.9 -1.6 -1.6 -1.9 -1.1 -1.1
5.6 6.5 6.5 6.5 6.5 6.5 6.5 6.5 6.5 6.5 6.5 6.5 6.5 6.5 6.5 6.5 6.5 6.4 5.4 5.8 6.3 4.7 4.1 3.0 2.5 2.8 1.5 0.8 -0.6 -1.4 -1.6 -2.0 -2.1 -2.6 -2.0 -2.0 -2.0 -2.3 -2.0 -1.7 -1.9 -2.0 -1.5 -0.9
6.5 6.5 6.5 6.5 6.5 6.5 6.5 6.5 6.5 6.5 6.5 6.5 6.5 6.5 6.5 6.5 6.5 6.4 6.5 6.2 5.2 4.8 4.1 4.3 4.3 3.7 3.1 1.1 0.7 -1.4 -1.5 -1.8 -1.9 -2.0 -2.0 -2.1 -1.9 -2.0 -1.9 -2.2 -2.3 -2.0 -1.8 -1.1
6.4 6.5 6.5 6.5 6.5 6.5 6.5 6.5 6.5 6.5 6.5 6.5 6.5 6.5 6.5 6.5 6.5 6.4 6.6 5.7 4.9 5.4 5.7 5.1 4.2 3.1 2.6 2.2 1.2 0.3 -1.2 -2.0 -2.2 -1.8 -1.7 -1.6 -1.6 -2.3 -2.7 -2.3 -2.3 -2.3 -2.4 -1.7
6.5 6.5 6.5 6.5 6.5 6.5 6.5 6.5 6.5 6.5 6.5 6.5 6.5 6.5 6.5 6.5 6.6 6.8 6.8 7.0 7.3 7.2 7.1 6.2 5.6 4.3 3.0 2.6 2.3 1.3 0.3 -0.8 -2.3 -1.6 -1.6 -1.5 -2.1 -2.2 -2.4 -2.3 -2.4 -2.7 -2.4 -1.9
6.5 6.5 6.5 6.5 6.5 6.5 6.5 6.5 6.5 6.5 6.5 6.5 6.5 6.5 6.6 6.8 7.0 5.8 7.1 7.0 6.8 6.0 6.0 5.2 5.2 3.4 2.5 1.4 1.3 1.3 0.1 -1.1 -1.8 -1.5 -0.9 -1.0 -1.7 -2.2 -2.3 -2.4 -2.8 -2.3 -1.8 -2.4
6.5 6.5 6.5 6.5 6.5 6.5 6.5 6.5 6.5 6.5 6.5 6.5 6.5 6.5 6.8 7.0 6.8 6.5 7.4 7.1 6.4 6.6 5.8 5.8 5.3 3.5 1.9 1.2 0.6 -0.0 -0.1 -0.4 -1.1 -1.6 -1.8 -1.6 -1.7 -1.6 -1.6 -2.6 -2.7 -2.5 -2.1 -2.3
6.5 6.5 6.5 6.5 6.5 6.5 6.5 6.5 6.1 6.4 6.5 6.7 6.8 6.6 6.8 6.8 6.5 6.5 7.5 6.3 5.9 5.7 6.2 5.1 4.5 3.5 2.8 2.4 0.1 -0.7 0.4 0.2 -0.7 -0.8 -1.0 -0.5 -1.0 -1.0 -1.2 -1.8 -2.1 -1.8 -1.9 -1.7
6.5 6.5 6.5 6.5 6.5 6.5 6.5 6.6 4.4 6.5 6.5 6.6 6.8 6.7 6.5 6.5 6.8 7.1 7.0 7.2 7.0 5.9 5.3 5.3 4.8 4.6 4.3 2.6 0.3 0.6 -0.0 0.7 1.5 -0.2 -1.0 -1.7 -1.8 -1.3 -0.6 -1.0 -1.2 -1.5 -1.3 -0.9
6.5 6.5 6.5 6.5 6.5 6.5 6.6 6.5 6.5 6.7 6.5 7.0 6.9 7.0 6.9 6.9 6.7 7.1 6.8 6.1 6.1 6.0 5.4 5.0 4.8 4.2 4.0 3.1 1.9 1.2 0.7 0.8 -0.6 -0.9 -1.3 -1.4 -1.7 -1.8 -1.6 -1.9 -2.1 -1.7 -1.3 -1.2
6.5 6.5 6.5 6.5 6.5 6.4 6.7 6.8 7.0 6.0 6.3 7.0 7.1 7.3 6.5 6.5 7.0 7.4 7.2 7.4 6.7 5.6 5.4 5.0 5.5 4.4 3.8 4.0 2.7 2.3 2.0 -0.2 -0.9 -1.4 -1.0 -1.4 -2.2 -2.0 -1.8 -2.2 -2.3 -2.2 -1.9 -1.4
6.5 6.0 6.5 6.5 6.5 6.5 6.7 7.1 7.3 7.5 7.4 7.5 7.5 7.1 7.5 7.2 7.4 7.4 7.6 7.6 7.7 7.3 5.3 5.0 4.6 4.5 3.6 3.5 3.3 3.1 1.9 -0.0 -1.2 -0.9 -0.9 -1.3 -1.6 -1.9 -2.8 -2.4 -1.9 -1.5 -1.9 -1.4
6.5 6.3 6.5 6.5 6.5 6.6 6.9 7.1 7.3 7.1 7.2 7.5 7.7 7.7 7.4 7.4 7.5 7.5 7.6 7.8 7.7 7.7 7.7 5.5 4.5 4.2 3.7 3.0 2.8 2.7 2.1 1.0 -0.0 -0.4 -0.7 -0.9 -1.6 -1.8 -2.3 -2.8 -2.5 -2.0 -1.2 -0.3
6.6 6.5 6.5 6.5 6.7 6.7 6.8 7.4 7.6 7.4 7.4 7.6 7.6 7.7 7.9 7.8 7.7 7.7 7.7 7.9 8.0 8.0 8.1 7.8 7.2 4.9 3.8 3.6 3.1 2.7 2.3 0.9 1.2 0.5 0.3 -0.2 -0.9 -1.5 -2.4 -2.8 -3.2 -4.9 -4.1 -3.5
Wind_Speed
3 3 4 5 4 2 2 2 4 5 4 3 6 14 21 16 10 15 15 16 15 17 16 15 15 16 15 14 15 16 15 15 11 6 5 6 7 7 7 13 15 14 13 12
4 3 3 2 2 3 3 2 5 6 3 3 7 21 21 17 10 13 17 16 16 11 14 13 15 15 17 17 17 16 16 15 13 9 6 4 4 5 6 10 13 15 15 14
4 2 1 1 2 2 3 4 3 5 6 1 9 9 5 2 2 4 10 11 10 17 17 15 16 17 15 18 18 16 17 16 15 15 6 4 2 1 2 5 6 13 17 16
4 3 2 1 3 5 3 3 2 4 4 3 6 6 6 5 9 4 7 9 13 12 12 13 15 16 18 17 14 17 16 17 15 16 12 12 9 9 6 5 5 7 14 14
5 1 1 1 4 4 5 3 2 2 1 2 3 1 8 5 6 10 7 6 8 11 13 14 15 17 15 14 15 15 15 15 15 16 15 12 12 9 5 5 7 6 6 11
6 2 3 5 2 2 2 0 4 3 1 1 2 1 5 3 5 10 13 12 10 6 10 13 10 8 11 11 11 12 15 15 15 15 15 16 15 12 8 8 7 6 5 5
5 2 3 0 2 2 5 5 4 3 2 3 0 0 9 7 9 6 14 15 13 7 5 7 11 11 10 11 13 12 14 15 15 17 16 16 16 14 14 12 9 9 7 5
0 4 1 1 2 4 2 4 4 4 2 4 1 5 2 1 7 5 7 7 8 10 7 5 8 9 11 12 12 14 15 14 15 16 16 14 15 10 10 11 9 8 8 8
3 4 1 1 1 0 2 3 2 4 1 1 3 6 4 1 3 5 11 15 12 12 11 8 3 7 8 10 14 16 15 15 16 17 14 14 14 14 13 12 10 8 9 7
3 3 1 1 2 3 2 4 3 2 2 4 4 5 4 3 5 7 12 13 14 9 13 10 5 4 7 8 9 11 14 17 17 16 15 13 15 15 13 11 13 12 10 9
2 2 3 1 5 6 2 1 4 2 3 3 2 5 5 4 4 7 8 7 8 10 8 11 7 4 6 7 10 12 13 14 14 14 14 14 13 14 13 12 12 12 11 11
1 3 3 8 1 1 2 4 5 3 4 1 1 6 3 6 6 6 13 7 8 7 8 7 7 6 5 8 9 12 13 14 14 13 13 15 13 13 14 14 14 13 13 12
2 1 3 6 2 2 2 3 3 3 2 7 3 5 1 4 12 15 12 16 10 16 18 14 9 8 6 8 9 11 12 14 13 13 14 13 14 14 15 14 14 14 14 13
1 1 5 5 1 1 4 3 4 3 3 5 8 20 17 19 17 17 18 21 21 18 15 14 13 12 9 7 9 10 12 13 12 12 14 14 15 16 15 14 14 14 14 14
4 3 3 6 7 4 7 10 6 8 9 9 13 16 19 14 15 19 18 17 17 18 17 15 16 16 13 10 8 8 11 10 12 13 13 16 15 14 13 13 14 13 14 14
5 4 6 4 7 7 13 12 10 14 14 14 16 24 17 17 14 14 16 14 14 17 17 17 18 17 16 12 10 7 9 12 12 13 15 14 12 12 14 14 15 14 14 14
3 2 4 5 5 17 20 10 17 11 6 9 15 14 13 13 17 17 15 16 18 19 20 21 21 18 16 14 10 10 10 7 12 13 15 14 14 14 14 15 13 14 16 14
5 3 4 9 7 16 5 5 5 5 4 9 9 12 12 14 17 12 11 16 19 19 21 22 19 19 16 13 13 11 6 7 10 11 12 12 13 16 16 15 15 15 14 15
16 6 3 7 10 19 26 21 12 6 2 10 12 15 15 17 14 2 21 19 19 17 15 16 16 17 16 11 10 10 8 8 8 10 13 14 15 14 12 13 15 15 13 13
11 11 7 4 5 6 3 5 5 2 4 9 10 12 16 17 14 14 22 20 21 20 15 17 18 17 16 17 10 6 9 8 9 11 10 9 10 13 14 14 14 12 11 14
2 2 10 11 9 12 7 12 9 10 4 8 10 12 11 8 7 18 20 20 20 20 20 18 18 15 16 16 12 10 7 9 11 8 8 8 9 11 12 10 9 9 10 10
4 3 2 3 4 14 7 6 5 12 7 9 19 18 14 13 12 11 17 16 18 21 22 21 17 18 17 15 12 14 11 8 6 7 8 7 8 8 8 11 9 9 10 11
5 6 4 6 7 18 23 18 16 9 13 18 16 15 17 14 17 16 15 16 15 16 18 18 15 19 17 15 11 14 14 9 8 6 7 7 6 6 7 8 9 7 9 9
5 10 11 13 20 23 22 22 23 18 18 18 14 16 17 22 22 19 16 17 15 14 14 17 16 18 21 16 15 13 13 9 8 9 7 5 6 5 6 5 5 6 7 9
8 3 12 15 21 18 24 25 22 15 14 19 19 19 19 20 23 21 20 18 18 19 16 15 15 16 18 19 17 16 13 9 8 7 7 7 4 5 4 5 5 7 8 9
16 23 13 16 24 18 21 25 28 26 26 26 24 21 21 22 24 23 20 18 17 19 17 15 19 19 20 18 18 17 13 6 7 8 7 4 5 4 4 4 4 4 8 11
Wind_Direction
10 50 231 225 201 176 191 234 268 254 277 267 246 268 273 267 218 238 239 237 231 229 231 219 212 209 206 203 201 202 196 201 185 182 200 219 221 222 227 227 231 231 230 225
14 247 226 211 162 182 196 261 279 279 252 236 298 283 271 266 240 226 234 234 228 220 223 218 210 204 205 205 205 202 203 195 195 194 193 190 187 218 221 223 229 228 227 225
175 226 103 213 205 218 245 226 255 251 319 260 308 290 325 357 304 255 246 250 230 220 220 216 207 205 201 208 204 203 202 198 197 196 163 139 140 143 192 226 232 225 224 225
227 290 264 224 235 153 291 201 237 293 15 308 7 292 310 333 317 291 290 244 244 229 223 215 204 202 204 207 199 201 198 198 199 188 193 197 203 209 212 206 212 220 219 222
256 199 141 279 222 171 229 22 357 1 98 339 358 329 273 330 356 343 332 340 269 245 225 226 209 204 203 198 197 197 194 195 193 189 195 199 210 217 205 204 217 214 212 217
239 301 217 210 118 155 106 0 47 61 85 357 278 139 290 353 339 318 328 328 310 298 245 234 213 202 207 195 192 189 192 197 191 190 196 200 207 206 205 208 215 216 216 216
319 248 296 118 121 55 72 51 317 333 8 232 205 227 256 291 315 304 319 328 340 332 326 248 217 195 197 192 190 188 193 200 194 194 198 203 208 205 208 210 211 209 215 218
280 328 170 327 201 174 119 150 158 286 309 298 58 238 232 328 300 312 305 322 18 18 355 295 230 217 202 195 193 191 192 201 196 198 203 204 206 208 213 212 205 212 212 216
160 278 290 40 100 11 167 172 171 113 78 318 276 282 321 322 332 356 21 32 22 22 14 1 291 230 228 212 198 195 194 203 198 199 200 204 204 209 211 211 208 211 213 215
205 302 16 322 110 41 197 148 93 31 262 279 290 281 248 345 333 341 8 7 2 5 16 13 358 244 233 227 216 207 205 203 200 197 200 204 204 208 211 207 210 213 215 209
120 117 283 104 200 183 123 191 53 116 161 207 299 274 214 245 327 322 334 328 329 341 352 351 341 301 252 227 207 211 209 209 205 201 203 206 203 205 207 211 213 213 210 207
328 152 256 232 169 174 161 207 157 146 217 252 80 275 217 242 270 299 311 299 317 318 308 317 314 306 261 238 229 219 212 210 214 207 201 207 203 200 205 212 212 208 212 207
312 297 343 329 29 41 226 201 149 107 97 195 170 257 270 260 304 318 313 320 322 327 325 323 304 294 273 254 232 225 224 221 213 203 203 204 205 202 209 212 210 207 210 211
1 160 195 210 53 252 270 222 205 178 181 231 232 270 284 302 301 311 316 317 322 323 314 310 310 303 284 260 241 229 224 216 214 206 206 209 209 209 210 209 206 204 206 208
54 296 352 281 278 247 240 250 212 201 235 236 275 272 279 289 293 296 303 310 312 314 315 319 314 311 299 279 262 236 231 217 206 208 211 218 213 211 209 209 206 206 203 209
346 297 352 290 304 319 293 271 243 239 247 256 265 272 278 277 283 299 302 299 306 314 319 319 316 312 308 293 273 254 235 219 196 207 216 221 215 211 209 210 208 203 206 206
244 255 8 273 335 331 296 246 228 233 214 243 257 282 328 355 338 311 313 352 342 334 326 323 321 316 312 301 287 271 256 222 201 213 218 211 208 208 213 215 208 208 209 201
227 186 202 280 317 271 274 113 129 215 15 10 18 16 2 353 322 319 42 356 340 335 330 325 323 320 317 310 301 286 276 230 211 212 224 224 212 210 211 207 208 213 209 204
218 211 250 245 245 281 290 283 297 245 217 27 20 5 351 349 337 339 353 344 327 322 321 322 322 319 310 311 316 301 285 256 233 229 223 215 213 221 221 215 213 213 207 206
206 221 243 243 247 265 273 100 354 22 224 24 19 3 341 345 348 317 327 326 322 323 324 325 328 328 330 330 323 323 302 285 251 246 253 252 223 214 211 212 217 215 214 220
5 293 243 246 250 264 356 324 329 287 344 325 340 322 309 301 271 296 310 316 318 319 320 326 327 325 328 328 322 314 305 293 287 270 248 228 216 221 226 222 212 205 208 215
245 253 273 288 226 264 33 21 24 318 301 288 316 319 309 280 270 286 296 302 312 316 318 322 322 323 326 323 327 316 307 296 304 299 285 264 235 216 210 208 205 204 201 207
272 217 232 228 262 303 305 292 295 272 273 297 302 295 297 291 299 296 288 293 296 302 307 311 314 313 314 317 317 315 310 306 305 294 282 277 259 241 222 207 205 201 201 205
254 247 256 269 267 274 286 297 299 290 280 281 282 279 280 293 294 290 287 292 288 289 293 300 305 307 307 312 310 304 302 301 301 300 294 287 277 261 227 216 207 207 204 209
244 235 247 265 274 274 272 274 283 286 294 288 278 280 279 284 285 286 291 289 295 296 290 288 290 293 292 299 302 301 303 301 300 295 291 294 283 272 263 237 214 213 219 209
249 249 247 255 264 266 277 282 287 292 289 290 290 285 280 279 279 282 279 283 283 283 283 280 284 287 287 292 292 292 296 277 285 292 291 276 283 273 254 249 245 229 238 216